Regional Weather Roundup
Issued by NWS

Home | Current Version | Previous Version | Graphics & Text | Print | Product List | Glossary Off
Versions: 1 2 3 4 5 6 7 8 9 10 11 12 13 14 15 16 17 18 19 20 21 22 23 24 25 26 27 28 29 30 31 32 33 34 35 36 37 38 39 40 41 42 43 44 45 46 47 48 49 50

000
ASUS43 KMPX 230010
RWRMN
WEATHER ROUNDUP FOR MINNESOTA
NATIONAL WEATHER SERVICE TWIN CITIES/CHANHASSEN MN
700 PM CDT MON SEP 22 2014


NOTE: "FAIR" INDICATES FEW OR NO CLOUDS BELOW 12,000 FEET WITH NO
SIGNIFICANT WEATHER AND/OR OBSTRUCTIONS TO VISIBILITY. N/A MEANS
CURRENT SKY AND/OR WEATHER CONDITIONS ARE NOT AVAILABLE.

MNZ060>063-068>070-230100-
   Twin Cities Metro

CITY           SKY/WX    TMP DP  RH WIND       PRES   REMARKS
TWIN CITIES    CLEAR     69  49  48 S6        30.15F
6HR MIN TEMP:  66; 6HR MAX TEMP:  72;

ST PAUL        CLEAR     66  52  60 S5        30.16S
CRYSTAL        CLEAR     70  49  47 SW3       30.14S
BLAINE         CLEAR     70  52  52 SW5       30.15S
LAKEVILLE      CLEAR     63  54  72 CALM      30.16F
EDEN PRAIRIE   CLEAR     66  51  58 S5        30.14F
6HR MIN TEMP:  66; 6HR MAX TEMP:  73;

SOUTH ST PAUL  CLEAR     68  49  51 CALM      30.15F
LAKE ELMO      FAIR      64  52  63 SW3       30.17S
$$
MNZ001>005-007-008-013>017-022>024-027-028-230100-
   Northwest Minnesota

CITY           SKY/WX    TMP DP  RH WIND       PRES   REMARKS
BEMIDJI        CLEAR     67  49  52 CALM      30.09S
HALLOCK        CLEAR     72  46  40 S7        30.00S
ROSEAU         CLEAR     68  55  64 S5        30.04S
WARROAD        CLEAR     70  55  60 SW3       30.05R
THIEF RVR FALL CLEAR     68  48  49 S7        30.05F
CROOKSTON      CLEAR     70  50  49 S7        30.04F
FOSSTON        CLEAR     68  48  49 S6        30.08S
DETROIT LAKES  CLEAR     66  50  55 S5        30.10F
MOORHEAD       CLEAR     73  41  31 S6        30.06S
PARK RAPIDS    CLEAR     65  49  56 SW6       30.10F
MAHNOMEN       FAIR      67  51  55 S5        30.07F
$$
MNZ006-009>011-018-025>026-230100-
   North Central Minnesota

CITY           SKY/WX    TMP DP  RH WIND       PRES   REMARKS
BAUDETTE       CLEAR     66  50  56 SW3       30.05R
FLAG ISLAND    CLEAR     70  52  52 SW6       30.02R
INTL FALLS     CLEAR     65  51  60 SW5       30.05S
6HR MIN TEMP:  65; 6HR MAX TEMP:  74;

WASKISH        CLEAR     64  52  63 CALM      30.07S
BIG FORK       CLEAR     63  52  67 CALM      30.09S
LONGVILLE      CLEAR     63  54  72 CALM      30.11S
GRAND RAPIDS   CLEAR     64  50  59 S3        30.10F
CRANE LAKE     CLEAR     57  52  82 CALM      30.08R
ORR            CLEAR     63  48  59 CALM      30.06R
COOK           CLEAR     64  52  63 SW3       30.09R
WALKER         FAIR      66  49  54 SW3       30.10R
$$
MNZ012-019>021-037-230100-
   Northeast Minnesota

CITY           SKY/WX    TMP DP  RH WIND       PRES   REMARKS
DULUTH         CLEAR     65  50  58 W8        30.11S
6HR MIN TEMP:  65; 6HR MAX TEMP:  72;

ELY            CLEAR     64  48  55 SW3       30.08R
HIBBING        CLEAR     63  53  70 CALM      30.10S
EVELETH        CLEAR     63  50  63 W6        30.11S
DULUTH HARBOR  CLEAR     68  54  60 SW9       30.10S
TWO HARBORS    CLEAR     64  50  59 W5        30.07S
SILVER BAY     CLEAR     61  54  77 CALM      30.07R
GRAND MARAIS     N/A     54  51  90 CALM      30.04S
G MARAIS ARPRT CLEAR     61  48  63 W3        30.08S
$$
MNZ029>031-032-039>041-046>048-054>057-064-230100-
   West Central Minnesota

CITY           SKY/WX    TMP DP  RH WIND       PRES   REMARKS
FERGUS FALLS   CLEAR     68  46  45 S7        30.08F
WHEATON        CLEAR     64  48  55 S6        30.09S
MORRIS         CLEAR     66  54  63 S5        30.09F
ALEXANDRIA     CLEAR     66  50  56 S7        30.12F
ELBOW LAKE     FAIR      63  51  65 S7        30.09F
WADENA         CLEAR     64  50  59 S6        30.11F
GLENWOOD       CLEAR     66  52  59 S5        30.13F
APPLETON       CLEAR     70  48  46 S3        30.10S
BENSON         CLEAR     66  48  52 S5        30.11F
ORTONVILLE     CLEAR     70  48  46 S5        30.10S
MADISON        PTCLDY    70  54  56 S5        30.11S
WILLMAR        FAIR      66  50  55 CALM      30.14F
$$
MNZ033>034-036-042>043-049>051-058-059-230100-
   Central Minnesota

CITY           SKY/WX    TMP DP  RH WIND       PRES   REMARKS
ST CLOUD       CLEAR     68  52  56 S6        30.13F
6HR MIN TEMP:  68; 6HR MAX TEMP:  75;

SAUK CENTRE    FAIR      65  51  59 S6        30.13F
PAYNESVILLE    CLEAR     64  50  60 CALM      30.13F
AITKIN         CLEAR     63  54  72 CALM      30.11S
PINE RIVER     CLEAR     64  52  63 S3        30.14S
BRAINERD       CLEAR     63  50  62 S6        30.12F
STAPLES        CLEAR     63  52  67 S5        30.12S
LONG PRAIRIE   FAIR      64  50  59 S5        30.13F
LITTLE FALLS   CLEAR     64  50  59 S3        30.13F
LITCHFIELD     CLEAR     68  52  56 CALM      30.14F
BUFFALO        CLEAR     67  50  54 CALM      30.15F
MAPLE LAKE     CLEAR     66  54  64 CALM      30.15F
$$
MNZ037-044-045-052-053-230100-
   East Central Minnesota

CITY           SKY/WX    TMP DP  RH WIND       PRES   REMARKS
PRINCETON      CLEAR     68  52  56 S3        30.15S
MORA           CLEAR     64  50  59 CALM      30.15S
CAMBRIDGE      CLEAR     68  52  56 S3        30.13S
RUSH CITY      CLEAR     65  52  63 CALM      30.14S
MOOSE LAKE     CLEAR     63  52  67 CALM      30.11S
HINCKLEY       FAIR      64  54  68 SW5       30.13S
CLOQUET        CLEAR     64  48  55 SW5       30.12S
MCGREGOR       CLEAR     64  52  63 CALM      30.12S
$$
MNZ071>073-080-081-089-090-097-098-230100-
   Southwest Minnesota

CITY           SKY/WX    TMP DP  RH WIND       PRES   REMARKS
MONTEVIDEO     PTCLDY    70  48  46 SW9       30.12S
GRANITE FALLS  CLEAR     68  48  49 S8        30.14S
CANBY          PTCLDY    69  47  43 S3        30.13S
MARSHALL       PTCLDY    70  46  43 S8        30.12F
REDWOOD FALLS  CLEAR     69  49  48 S7        30.13F
OLIVIA         CLEAR     70  50  49 S5        30.13F
PIPESTONE      PTCLDY    64  46  52 S6        30.15S
WINDOM         PTCLDY    68  46  45 S6        30.17S
WORTHINGTON    CLEAR     66  46  48 S6        30.18S
JACKSON        PTCLDY    64  46  52 S5        30.19S
TRACY          PTCLDY    66  49  53 CALM      30.15S
SLAYTON        CLEAR     65  48  53 CALM      30.17S
$$
MNZ065>067-074>077-082>085-091>093-230100-
   South Central Minnesota

CITY           SKY/WX    TMP DP  RH WIND       PRES   REMARKS
MANKATO        CLEAR     66  46  48 S5        30.16F
NEW ULM        CLEAR     66  52  59 S6        30.15F
ST JAMES       CLEAR     68  48  49 S3        30.17S
FAIRMONT       PTCLDY    68  46  45 S3        30.17F
GLENCOE        CLEAR     68  48  48 S3        30.14F
FARIBAULT      CLEAR     66  52  59 CALM      30.17F
OWATONNA       CLEAR     64  50  59 S5        30.17F
WASECA         CLEAR     61  45  55 CALM      30.19F
ALBERT LEA     CLEAR     66  50  55 CALM      30.19S
$$
MNZ078>079-086>088-094>096-230100-
   Southeast Minnesota

CITY           SKY/WX    TMP DP  RH WIND       PRES   REMARKS
ROCHESTER      CLEAR     61  52  72 SW6       30.19F
6HR MIN TEMP:  61; 6HR MAX TEMP:  70;

RED WING       CLEAR     66  52  59 CALM      30.15S
STANTON        CLEAR     66  51  57 CALM      30.15F
DODGE CENTER   CLEAR     64  52  63 SW5       30.19S
WINONA         CLEAR     63  54  72 CALM      30.18S
AUSTIN         CLEAR     64  48  55 CALM      30.19S
PRESTON        CLEAR     64  53  68 SW5       30.19F
$$
ABBREVIATIONS USED IN REMARKS
   TC - TEMPERATURES IN CELSIUS
  WCI - WIND CHILL INDEX
   HX - HEAT INDEX
  VSB - VISIBILITY
$$


USA.gov is the U.S. government's official web portal to all federal, state and local government web resources and services.